Regional Weather Roundup
Issued by NWS

Home | Current Version | Previous Version | Text Only | Print | Product List | Glossary On
Versions: 1 2 3 4 5 6 7 8 9 10 11 12 13 14 15 16 17 18 19 20 21 22 23 24 25 26 27 28 29 30 31 32 33 34 35 36 37 38 39 40 41 42 43 44 45 46 47 48 49 50
000
ASUS43 KIND 040459
RWRIN

WEATHER ROUNDUP FOR INDIANA
NATIONAL WEATHER SERVICE INDIANAPOLIS IN
100 AM EDT SAT JUL 04 2015

NOTE: "FAIR" INDICATES FEW OR NO CLOUDS BELOW 12,000 FEET WITH NO
SIGNIFICANT WEATHER AND/OR OBSTRUCTIONS TO VISIBILITY.

* - STATION DOES NOT REPORT WEATHER SUCH AS PRECIPITATION OR FOG.

+ - STATION NOT QUALITY CONTROLLED BY THE NATIONAL WEATHER SERVICE.
    USE DATA WITH CAUTION...ESPECIALLY DEWPOINT AND RELATIVE
    HUMIDITY OBSERVATIONS.

INZ001>003-010>013-019-020-040600-
NORTHWEST INDIANA

CITY           SKY/WX    TMP DP  RH WIND       PRES   REMARKS
RENSSELAER +   CLEAR     59  59 100 CALM      29.95F

$$

LMZ046-743>745-040600-
SOUTHERN LAKE MICHIGAN

STATION/POSITION TIME  TEMP    WIND        PRES    WAVE
                       AIR SEA DIR/SP/G            HT
                 (UTC) (F)     (DEG/KT/KT) (MB)    (FT)
BURNS HARBOR     0400   64     220/  1/  2 1014.6S
MICHIGAN CITY    0400   63     110/  5/  6   N/A
5NW MICH CITY    0400   63 64  210/  2/  2   N/A     1

$$

INZ004-005-014>016-021>024-040600-
NORTH CENTRAL INDIANA

CITY           SKY/WX    TMP DP  RH WIND       PRES   REMARKS
GOSHEN         CLEAR     58  54  86 CALM      29.95R
SOUTH BEND     CLEAR     59  54  83 CALM      29.96R

$$

INZ006>009-017-018-025>027-040600-
NORTHEAST INDIANA

CITY           SKY/WX    TMP DP  RH WIND       PRES   REMARKS
ANGOLA *+        N/A     59  46  63 CALM      29.95S
FORT WAYNE     PTCLDY    64  58  80 CALM      29.95S

$$

INZ028-029-035-036-043>045-051>053-040600-
WEST CENTRAL INDIANA

CITY           SKY/WX    TMP DP  RH WIND       PRES   REMARKS
CRAWFORDSVL +  CLEAR     61  60  97 CALM      29.95R FOG
GREENCASTLE +  PTCLDY    66  59  77 CALM      29.95R
LAFAYETTE      CLEAR     63  59  87 N6        29.94S
TERRE HAUTE    PTCLDY    66  63  90 CALM      29.94R

$$

INZ030>032-037>040-046>048-054>057-064-065-040600-
CENTRAL INDIANA

CITY           SKY/WX    TMP DP  RH WIND       PRES   REMARKS
GREENWOOD *+   CLOUDY    68  64  88 CALM      29.94S
INDIANAPOLIS   CLOUDY    70  62  76 N3        29.92S
-EAGLE CREEK   CLOUDY    68  63  84 N5        29.93S
KOKOMO *+      PTCLDY    63  57  82 CALM      29.94S
MT COMFORT *+  CLOUDY    68 N/A N/A CALM      29.94S
SHELBYVILLE    CLOUDY    67  64  90 CALM      29.92S FOG

$$

INZ033-034-041-042-049-050-058-059-040600-
EAST CENTRAL INDIANA

CITY           SKY/WX    TMP DP  RH WIND       PRES   REMARKS
MUNCIE         PTCLDY    66  62  87 CALM      29.94S

$$

INZ060-061-067>069-081>083-085>088-040600-
SOUTHWEST INDIANA

CITY           SKY/WX    TMP DP  RH WIND       PRES   REMARKS
EVANSVILLE     CLEAR     70  68  93 NE5       29.91R FOG
HUNTINGBURG *+ MOCLDY    70  66  88 N6        29.91S

$$

INZ062-063-066-070>080-084-089>092-040600-
SOUTH CENTRAL AND SOUTHEAST INDIANA

CITY           SKY/WX    TMP DP  RH WIND       PRES   REMARKS
BLOOMINGTON    PTCLDY    64  64 100 CALM      29.93S FOG
MADISON *+     CLOUDY    68  63  83 CALM      29.94R VSB 1/2
SEYMOUR +      CLOUDY    70  64  83 CALM      29.92S

$$



USA.gov is the U.S. government's official web portal to all federal, state and local government web resources and services.